ANA152 ROAH-RJAA

Flight info

Callsign ANA152
Flight time 2h 10m
Altitude 35000
Route AMAMI Y574 SHIBK Y57 YULIA Y89 GUPER Y81 RUTAS
Aircraft A321/M-SDE3FGHIRWY/LB1

Departure

Time 2026-05-04 00:34
Airport Naha International Airport (ROAH)

Arrival

Time 2026-05-04 02:44
Airport Narita International Airport (RJAA)
Time Latitude Longitude Altitude Speed Heading
2026-05-04 00:06 26.20427 127.65003 22 ft 0 kts 28°
2026-05-04 00:19 26.20420 127.64999 -5 ft 4 kts 28°
2026-05-04 00:19 26.20396 127.64985 33 ft 4 kts 28°
2026-05-04 00:19 26.20375 127.64972 24 ft 4 kts 23°
2026-05-04 00:20 26.20363 127.64967 25 ft 4 kts 295°
2026-05-04 00:20 26.20359 127.64991 24 ft 1 kts 267°
2026-05-04 00:20 26.20359 127.65008 24 ft 0 kts 268°
2026-05-04 00:24 26.20358 127.64992 21 ft 4 kts 268°
2026-05-04 00:25 26.20357 127.64945 21 ft 7 kts 268°
2026-05-04 00:25 26.20356 127.64906 21 ft 3 kts 268°
2026-05-04 00:25 26.20355 127.64886 21 ft 2 kts 268°
2026-05-04 00:25 26.20354 127.64869 20 ft 3 kts 268°
2026-05-04 00:26 26.20353 127.64826 20 ft 7 kts 268°
2026-05-04 00:26 26.20333 127.64761 17 ft 9 kts 207°
2026-05-04 00:26 26.20283 127.64761 17 ft 7 kts 179°
2026-05-04 00:26 26.20241 127.64762 17 ft 5 kts 179°
2026-05-04 00:27 26.20206 127.64763 17 ft 5 kts 176°
2026-05-04 00:27 26.20149 127.64767 17 ft 11 kts 177°
2026-05-04 00:27 26.20060 127.64772 17 ft 15 kts 177°
2026-05-04 00:27 26.19960 127.64776 17 ft 14 kts 178°
2026-05-04 00:28 26.19866 127.64781 17 ft 13 kts 178°
2026-05-04 00:28 26.19775 127.64785 17 ft 13 kts 178°
2026-05-04 00:28 26.19688 127.64789 17 ft 12 kts 177°
2026-05-04 00:28 26.19603 127.64793 17 ft 12 kts 178°
2026-05-04 00:29 26.19518 127.64797 17 ft 13 kts 177°
2026-05-04 00:29 26.19414 127.64802 17 ft 17 kts 177°
2026-05-04 00:29 26.19292 127.64808 17 ft 18 kts 177°
2026-05-04 00:29 26.19176 127.64813 17 ft 16 kts 178°
2026-05-04 00:30 26.19070 127.64819 17 ft 14 kts 178°
2026-05-04 00:30 26.18970 127.64823 17 ft 16 kts 178°
2026-05-04 00:30 26.18866 127.64828 17 ft 14 kts 177°
2026-05-04 00:30 26.18774 127.64833 18 ft 14 kts 177°
2026-05-04 00:31 26.18659 127.64837 17 ft 17 kts 178°
2026-05-04 00:31 26.18549 127.64843 16 ft 16 kts 177°
2026-05-04 00:31 26.18445 127.64848 17 ft 14 kts 178°
2026-05-04 00:31 26.18353 127.64852 17 ft 13 kts 178°
2026-05-04 00:32 26.18271 127.64844 16 ft 12 kts 205°
2026-05-04 00:32 26.18243 127.64775 16 ft 10 kts 268°
2026-05-04 00:32 26.18240 127.64702 15 ft 9 kts 268°
2026-05-04 00:32 26.18260 127.64652 16 ft 7 kts 341°
2026-05-04 00:33 26.18300 127.64649 16 ft 6 kts
2026-05-04 00:33 26.19018 127.64617 19 ft 110 kts 358°
2026-05-04 00:33 26.19953 127.64575 27 ft 154 kts 358°
2026-05-04 00:34 26.21052 127.64518 550 ft 158 kts 359°
2026-05-04 00:34 26.22150 127.64455 1214 ft 157 kts 359°
2026-05-04 00:34 26.23224 127.64407 1852 ft 158 kts 359°
2026-05-04 00:34 26.24369 127.64360 2084 ft 173 kts 359°
2026-05-04 00:35 26.25642 127.64234 2205 ft 194 kts 347°
2026-05-04 00:35 26.26965 127.63597 2355 ft 218 kts 335°
2026-05-04 00:35 26.28352 127.62699 2634 ft 240 kts 332°
2026-05-04 00:35 26.29772 127.61729 3275 ft 245 kts 332°
2026-05-04 00:36 26.31243 127.60731 3926 ft 250 kts 329°
2026-05-04 00:36 26.32764 127.59721 4546 ft 259 kts 327°
2026-05-04 00:36 26.34357 127.58684 5124 ft 268 kts 325°
2026-05-04 00:36 26.36028 127.57695 5713 ft 278 kts 336°
2026-05-04 00:37 26.37979 127.57375 6290 ft 293 kts
2026-05-04 00:37 26.39925 127.58087 6848 ft 305 kts 31°
2026-05-04 00:37 26.41396 127.59792 7407 ft 310 kts 62°
2026-05-04 00:37 26.42292 127.61987 8025 ft 312 kts 69°
2026-05-04 00:38 26.43149 127.64242 8640 ft 316 kts 69°
2026-05-04 00:38 26.44011 127.66523 9220 ft 319 kts 68°
2026-05-04 00:38 26.44869 127.68785 9803 ft 322 kts 68°
2026-05-04 00:38 26.45753 127.71107 10281 ft 330 kts 68°
2026-05-04 00:39 26.46680 127.73527 10389 ft 350 kts 68°
2026-05-04 00:39 26.47673 127.76098 10517 ft 369 kts 68°
2026-05-04 00:39 26.48716 127.78794 10633 ft 386 kts 68°
2026-05-04 00:39 26.49800 127.81601 10887 ft 398 kts 68°
2026-05-04 00:40 26.50890 127.84423 11324 ft 403 kts 68°
2026-05-04 00:40 26.52005 127.87313 11825 ft 406 kts 68°
2026-05-04 00:40 26.53129 127.90239 12338 ft 410 kts 68°
2026-05-04 00:40 26.54254 127.93182 12847 ft 414 kts 68°
2026-05-04 00:41 26.55389 127.96156 13332 ft 418 kts 68°
2026-05-04 00:41 26.56543 127.99171 13809 ft 422 kts 68°
2026-05-04 00:41 26.57690 128.02165 14249 ft 426 kts 68°
2026-05-04 00:41 26.58862 128.05226 14676 ft 430 kts 68°
2026-05-04 00:42 26.60042 128.08316 15104 ft 433 kts 68°
2026-05-04 00:42 26.61230 128.11432 15510 ft 436 kts 68°
2026-05-04 00:42 26.62429 128.14574 15953 ft 441 kts 67°
2026-05-04 00:42 26.63635 128.17738 16383 ft 444 kts 67°
2026-05-04 00:43 26.64856 128.20935 16779 ft 448 kts 67°
2026-05-04 00:43 26.66067 128.24116 17159 ft 451 kts 67°
2026-05-04 00:43 26.67299 128.27359 17537 ft 455 kts 67°
2026-05-04 00:43 26.68698 128.30559 17900 ft 458 kts 58°
2026-05-04 00:44 26.70502 128.33494 18258 ft 460 kts 49°
2026-05-04 00:44 26.72513 128.36298 18600 ft 463 kts 49°
2026-05-04 00:44 26.74539 128.39128 18931 ft 465 kts 49°
2026-05-04 00:44 26.76544 128.41938 19260 ft 467 kts 49°
2026-05-04 00:45 26.78579 128.44805 19581 ft 469 kts 50°
2026-05-04 00:45 26.80611 128.47676 19914 ft 472 kts 50°
2026-05-04 00:45 26.82656 128.50568 20249 ft 474 kts 50°
2026-05-04 00:45 26.84713 128.53471 20574 ft 476 kts 50°
2026-05-04 00:46 26.86750 128.56339 20894 ft 478 kts 49°
2026-05-04 00:46 26.88832 128.59272 21216 ft 480 kts 50°
2026-05-04 00:46 26.90924 128.62198 21537 ft 482 kts 47°
2026-05-04 00:46 26.93291 128.64879 21844 ft 480 kts 37°
2026-05-04 00:47 26.95935 128.67085 22138 ft 478 kts 27°
2026-05-04 00:47 26.98844 128.68900 22429 ft 478 kts 23°
2026-05-04 00:47 27.01791 128.70667 22735 ft 480 kts 24°
2026-05-04 00:47 27.04740 128.72449 23031 ft 483 kts 24°
2026-05-04 00:48 27.07705 128.74251 23328 ft 485 kts 24°
2026-05-04 00:48 27.10682 128.76067 23616 ft 487 kts 24°
2026-05-04 00:48 27.13671 128.77891 23853 ft 489 kts 24°
2026-05-04 00:48 27.16641 128.79701 24086 ft 491 kts 24°
2026-05-04 00:49 27.19651 128.81530 24306 ft 493 kts 24°
2026-05-04 00:49 27.22694 128.83377 24556 ft 495 kts 24°
2026-05-04 00:49 27.25742 128.85228 24792 ft 497 kts 24°
2026-05-04 00:49 27.28746 128.87057 25014 ft 499 kts 24°
2026-05-04 00:50 27.31814 128.88929 25236 ft 500 kts 24°
2026-05-04 00:50 27.34892 128.90813 25473 ft 502 kts 24°
2026-05-04 00:50 27.37941 128.92679 25699 ft 504 kts 24°
2026-05-04 00:50 27.41043 128.94575 25924 ft 506 kts 24°
2026-05-04 00:51 27.44156 128.96475 26144 ft 508 kts 24°
2026-05-04 00:51 27.47267 128.98373 26370 ft 509 kts 24°
2026-05-04 00:51 27.50352 129.00257 26566 ft 511 kts 24°
2026-05-04 00:51 27.53489 129.02175 26787 ft 513 kts 24°
2026-05-04 00:52 27.56634 129.04103 26998 ft 514 kts 24°
2026-05-04 00:52 27.58727 129.05388 27140 ft 516 kts 24°
2026-05-04 00:52 27.61889 129.07331 27353 ft 517 kts 25°
2026-05-04 00:52 27.65062 129.09280 27561 ft 519 kts 24°
2026-05-04 00:53 27.68247 129.11235 27774 ft 521 kts 25°
2026-05-04 00:53 27.71406 129.13177 27980 ft 523 kts 25°
2026-05-04 00:53 27.74609 129.15150 28221 ft 523 kts 25°
2026-05-04 00:53 27.77816 129.17130 28507 ft 523 kts 25°
2026-05-04 00:54 27.81008 129.19101 28790 ft 523 kts 25°
2026-05-04 00:54 27.84206 129.21072 29073 ft 522 kts 25°
2026-05-04 00:54 27.87362 129.23015 29346 ft 522 kts 25°
2026-05-04 00:54 27.90559 129.24982 29624 ft 522 kts 25°
2026-05-04 00:55 27.93752 129.26951 29895 ft 522 kts 25°
2026-05-04 00:55 27.96943 129.28923 30167 ft 521 kts 25°
2026-05-04 00:55 28.00138 129.30901 30398 ft 521 kts 25°
2026-05-04 00:55 28.03281 129.32849 30624 ft 521 kts 25°
2026-05-04 00:56 28.06458 129.34819 30856 ft 521 kts 25°
2026-05-04 00:56 28.09641 129.36795 31085 ft 520 kts 25°
2026-05-04 00:56 28.12814 129.38768 31314 ft 520 kts 24°
2026-05-04 00:56 28.15995 129.40743 31551 ft 520 kts 24°
2026-05-04 00:57 28.19176 129.42717 31786 ft 520 kts 24°
2026-05-04 00:57 28.22366 129.44698 31998 ft 521 kts 24°
2026-05-04 00:57 28.25509 129.46651 32213 ft 521 kts 24°
2026-05-04 00:57 28.28707 129.48637 32464 ft 520 kts 24°
2026-05-04 00:58 28.31889 129.50617 32695 ft 520 kts 24°
2026-05-04 00:58 28.35042 129.52581 32953 ft 520 kts 24°
2026-05-04 00:58 28.38113 129.54795 33189 ft 526 kts 35°
2026-05-04 00:58 28.40805 129.57652 33437 ft 530 kts 47°
2026-05-04 00:59 28.42985 129.61039 33656 ft 533 kts 59°
2026-05-04 00:59 28.44555 129.64795 33854 ft 533 kts 72°
2026-05-04 00:59 28.45509 129.68878 33973 ft 530 kts 84°
2026-05-04 01:00 28.46429 129.77149 33982 ft 529 kts 86°
2026-05-04 01:00 28.47319 129.85467 33988 ft 529 kts 86°
2026-05-04 01:01 28.48209 129.93781 33993 ft 530 kts 86°
2026-05-04 01:01 28.49097 130.02066 33993 ft 530 kts 86°
2026-05-04 01:02 28.50094 130.10382 33992 ft 531 kts 78°
2026-05-04 01:02 28.52817 130.18192 34000 ft 533 kts 58°
2026-05-04 01:03 28.56952 130.25147 34002 ft 532 kts 54°
2026-05-04 01:03 28.61160 130.32112 34002 ft 532 kts 54°
2026-05-04 01:04 28.65320 130.39034 34006 ft 532 kts 54°
2026-05-04 01:04 28.69519 130.46012 33999 ft 532 kts 54°
2026-05-04 01:05 28.73722 130.52976 34001 ft 532 kts 54°
2026-05-04 01:05 28.77894 130.59899 34000 ft 531 kts 54°
2026-05-04 01:06 28.82078 130.66869 33996 ft 532 kts 54°
2026-05-04 01:06 28.86253 130.73841 33994 ft 531 kts 54°
2026-05-04 01:07 28.90415 130.80783 33988 ft 531 kts 54°
2026-05-04 01:07 28.94582 130.87749 33987 ft 530 kts 54°
2026-05-04 01:08 28.98718 130.94679 33982 ft 530 kts 55°
2026-05-04 01:08 29.02891 131.01675 33986 ft 530 kts 55°
2026-05-04 01:09 29.07050 131.08661 33985 ft 530 kts 55°
2026-05-04 01:09 29.11183 131.15631 33982 ft 531 kts 55°
2026-05-04 01:10 29.15333 131.22630 33982 ft 531 kts 55°
2026-05-04 01:10 29.19464 131.29602 33981 ft 531 kts 55°
2026-05-04 01:11 29.23619 131.36626 33979 ft 531 kts 55°
2026-05-04 01:11 29.27744 131.43625 33979 ft 531 kts 55°
2026-05-04 01:12 29.31884 131.50664 33975 ft 531 kts 55°
2026-05-04 01:12 29.36005 131.57668 33970 ft 532 kts 55°
2026-05-04 01:13 29.40147 131.64722 33970 ft 532 kts 55°
2026-05-04 01:13 29.44257 131.71736 33968 ft 533 kts 55°
2026-05-04 01:14 29.48391 131.78821 33967 ft 533 kts 55°
2026-05-04 01:14 29.52527 131.85911 33964 ft 533 kts 55°
2026-05-04 01:15 29.56634 131.92956 33960 ft 533 kts 55°
2026-05-04 01:15 29.60758 132.00054 33964 ft 533 kts 55°
2026-05-04 01:16 29.64880 132.07151 33960 ft 532 kts 54°
2026-05-04 01:16 29.69497 132.13814 33959 ft 532 kts 49°
2026-05-04 01:17 29.74176 132.20356 33959 ft 532 kts 49°
2026-05-04 01:17 29.78882 132.26951 33952 ft 532 kts 49°
2026-05-04 01:18 29.83557 132.33530 33959 ft 532 kts 49°
2026-05-04 01:18 29.88246 132.40145 33952 ft 532 kts 49°
2026-05-04 01:19 29.92933 132.46769 33953 ft 532 kts 49°
2026-05-04 01:19 29.97601 132.53371 33946 ft 532 kts 49°
2026-05-04 01:20 30.02286 132.59997 33951 ft 532 kts 49°
2026-05-04 01:20 30.06981 132.66645 33945 ft 533 kts 49°
2026-05-04 01:21 30.11629 132.73250 33946 ft 533 kts 49°
2026-05-04 01:21 30.16314 132.79917 33941 ft 534 kts 50°
2026-05-04 01:22 30.21001 132.86601 33939 ft 534 kts 50°
2026-05-04 01:22 30.25671 132.93287 33934 ft 534 kts 50°
2026-05-04 01:23 30.30347 132.99986 33938 ft 535 kts 50°
2026-05-04 01:23 30.35000 133.06641 33933 ft 535 kts 50°
2026-05-04 01:24 30.39686 133.13348 33934 ft 535 kts 50°
2026-05-04 01:24 30.44366 133.20080 33927 ft 536 kts 50°
2026-05-04 01:25 30.49055 133.26841 33924 ft 536 kts 50°
2026-05-04 01:25 30.53723 133.33578 33928 ft 536 kts 50°
2026-05-04 01:26 30.58380 133.40292 33918 ft 536 kts 50°
2026-05-04 01:26 30.63069 133.47071 33918 ft 537 kts 50°
2026-05-04 01:27 30.67727 133.53828 33922 ft 537 kts 50°
2026-05-04 01:27 30.72401 133.60631 33916 ft 538 kts 50°
2026-05-04 01:28 30.77048 133.67410 33910 ft 538 kts 50°
2026-05-04 01:28 30.81729 133.74226 33906 ft 538 kts 50°
2026-05-04 01:29 30.86414 133.81056 33904 ft 539 kts 50°
2026-05-04 01:29 30.91062 133.87849 33901 ft 539 kts 50°
2026-05-04 01:30 30.95744 133.94706 33899 ft 540 kts 50°
2026-05-04 01:30 31.00414 134.01548 33899 ft 540 kts 50°
2026-05-04 01:31 31.04307 134.07255 33892 ft 540 kts 50°
2026-05-04 01:31 31.08984 134.14141 33888 ft 541 kts 50°
2026-05-04 01:32 31.13651 134.21041 33889 ft 541 kts 50°
2026-05-04 01:32 31.18300 134.27915 33890 ft 542 kts 50°
2026-05-04 01:33 31.22992 134.34830 33882 ft 543 kts 50°
2026-05-04 01:33 31.27682 134.41775 33879 ft 543 kts 50°
2026-05-04 01:34 31.32364 134.48740 33877 ft 544 kts 50°
2026-05-04 01:34 31.37021 134.55660 33873 ft 544 kts 50°
2026-05-04 01:35 31.41701 134.62626 33867 ft 544 kts 51°
2026-05-04 01:35 31.46364 134.69599 33870 ft 544 kts 51°
2026-05-04 01:36 31.51042 134.76594 33861 ft 544 kts 51°
2026-05-04 01:36 31.55691 134.83560 33859 ft 544 kts 51°
2026-05-04 01:37 31.60366 134.90585 33857 ft 544 kts 51°
2026-05-04 01:37 31.65008 134.97557 33855 ft 544 kts 51°
2026-05-04 01:38 31.69667 135.04567 33847 ft 545 kts 51°
2026-05-04 01:38 31.74212 135.11725 33850 ft 545 kts 55°
2026-05-04 01:39 31.78351 135.19226 33843 ft 545 kts 58°
2026-05-04 01:39 31.82314 135.26782 33842 ft 545 kts 58°
2026-05-04 01:40 31.86411 135.34336 33842 ft 545 kts 57°
2026-05-04 01:40 31.90557 135.41755 33836 ft 546 kts 56°
2026-05-04 01:41 31.94721 135.49241 33830 ft 546 kts 57°
2026-05-04 01:41 31.98846 135.56753 33834 ft 546 kts 57°
2026-05-04 01:42 32.02961 135.64296 33828 ft 547 kts 57°
2026-05-04 01:42 32.07068 135.71810 33826 ft 547 kts 57°
2026-05-04 01:43 32.11204 135.79373 33818 ft 548 kts 57°
2026-05-04 01:43 32.15325 135.86934 33809 ft 548 kts 57°
2026-05-04 01:44 32.19459 135.94532 33822 ft 548 kts 57°
2026-05-04 01:44 32.23567 136.02086 33817 ft 548 kts 57°
2026-05-04 01:45 32.27686 136.09698 33802 ft 549 kts 57°
2026-05-04 01:45 32.33844 136.21079 33800 ft 549 kts 57°
2026-05-04 01:46 32.37977 136.28721 33799 ft 550 kts 57°
2026-05-04 01:46 32.42102 136.36368 33795 ft 550 kts 57°
2026-05-04 01:47 32.46205 136.43992 33795 ft 550 kts 58°
2026-05-04 01:47 32.50296 136.51620 33790 ft 550 kts 58°
2026-05-04 01:48 32.54403 136.59301 33787 ft 550 kts 58°
2026-05-04 01:48 32.58510 136.66986 33785 ft 550 kts 58°
2026-05-04 01:49 32.62588 136.74627 33779 ft 551 kts 58°
2026-05-04 01:49 32.66701 136.82343 33781 ft 551 kts 58°
2026-05-04 01:50 32.70798 136.90039 33777 ft 551 kts 58°
2026-05-04 01:50 32.74857 136.97694 33777 ft 551 kts 58°
2026-05-04 01:51 32.78950 137.05434 33767 ft 551 kts 58°
2026-05-04 01:51 32.82999 137.13115 33769 ft 551 kts 58°
2026-05-04 01:52 32.87075 137.20851 33766 ft 551 kts 58°
2026-05-04 01:52 32.91137 137.28555 33756 ft 551 kts 59°
2026-05-04 01:53 32.95206 137.36322 33754 ft 550 kts 59°
2026-05-04 01:53 32.99252 137.44068 33755 ft 550 kts 59°
2026-05-04 01:54 33.03274 137.51764 33748 ft 550 kts 59°
2026-05-04 01:54 33.07336 137.59534 33745 ft 551 kts 59°
2026-05-04 01:55 33.11365 137.67270 33742 ft 551 kts 59°
2026-05-04 01:55 33.15403 137.75059 33740 ft 551 kts 59°
2026-05-04 01:56 33.19443 137.82854 33739 ft 552 kts 59°
2026-05-04 01:56 33.23462 137.90623 33728 ft 552 kts 59°
2026-05-04 01:57 33.27496 137.98445 33732 ft 552 kts 59°
2026-05-04 01:57 33.31521 138.06269 33726 ft 552 kts 60°
2026-05-04 01:58 33.34793 138.12636 33724 ft 552 kts 60°
2026-05-04 01:58 33.38748 138.20325 33720 ft 552 kts 60°
2026-05-04 01:59 33.42760 138.28160 33714 ft 551 kts 60°
2026-05-04 01:59 33.46747 138.35975 33780 ft 550 kts 60°
2026-05-04 02:00 33.50742 138.43813 33785 ft 549 kts 60°
2026-05-04 02:00 33.54732 138.51636 33786 ft 549 kts 60°
2026-05-04 02:01 33.58684 138.59409 33785 ft 548 kts 60°
2026-05-04 02:01 33.62651 138.67247 33779 ft 548 kts 60°
2026-05-04 02:02 33.66587 138.75045 33774 ft 548 kts 60°
2026-05-04 02:02 33.70557 138.82900 33770 ft 548 kts 60°
2026-05-04 02:03 33.74506 138.90732 33773 ft 547 kts 60°
2026-05-04 02:03 33.78428 138.98529 33767 ft 547 kts 60°
2026-05-04 02:04 33.82362 139.06375 33769 ft 547 kts 60°
2026-05-04 02:04 33.86283 139.14224 33764 ft 547 kts 60°
2026-05-04 02:05 33.90179 139.22022 33758 ft 546 kts 60°
2026-05-04 02:05 33.94104 139.29897 33758 ft 547 kts 60°
2026-05-04 02:06 33.98011 139.37757 33753 ft 547 kts 60°
2026-05-04 02:06 34.01917 139.45641 33751 ft 546 kts 60°
2026-05-04 02:07 34.05786 139.53475 33745 ft 546 kts 60°
2026-05-04 02:07 34.10258 139.60885 33744 ft 546 kts 51°
2026-05-04 02:08 34.14228 139.66828 33739 ft 546 kts 51°
2026-05-04 02:08 34.18966 139.73963 33729 ft 546 kts 51°
2026-05-04 02:09 34.23717 139.81159 33733 ft 546 kts 51°
2026-05-04 02:09 34.28465 139.88363 33721 ft 547 kts 51°
2026-05-04 02:10 34.33202 139.95548 33219 ft 544 kts 51°
2026-05-04 02:10 34.35555 139.99119 32795 ft 540 kts 51°
2026-05-04 02:10 34.37879 140.02643 32448 ft 543 kts 51°
2026-05-04 02:11 34.40254 140.06250 31424 ft 552 kts 50°
2026-05-04 02:11 34.42653 140.09900 30562 ft 556 kts 50°
2026-05-04 02:11 34.45082 140.13607 29534 ft 563 kts 51°
2026-05-04 02:11 34.47307 140.17543 28513 ft 566 kts 58°
2026-05-04 02:12 34.49358 140.21539 27971 ft 560 kts 58°
2026-05-04 02:12 34.51424 140.25549 27287 ft 557 kts 58°
2026-05-04 02:12 34.53480 140.29525 26640 ft 554 kts 58°
2026-05-04 02:12 34.55521 140.33470 26007 ft 550 kts 58°
2026-05-04 02:13 34.57552 140.37403 25372 ft 547 kts 58°
2026-05-04 02:13 34.59565 140.41315 24751 ft 544 kts 58°
2026-05-04 02:13 34.61542 140.45165 24145 ft 541 kts 58°
2026-05-04 02:13 34.63530 140.49039 23532 ft 538 kts 58°
2026-05-04 02:14 34.65506 140.52893 22868 ft 535 kts 58°
2026-05-04 02:14 34.67459 140.56705 22325 ft 528 kts 58°
2026-05-04 02:14 34.69562 140.60340 21741 ft 522 kts 48°
2026-05-04 02:14 34.72116 140.63423 21234 ft 512 kts 36°
2026-05-04 02:15 34.75015 140.65848 20716 ft 499 kts 24°
2026-05-04 02:15 34.78098 140.67552 20265 ft 484 kts 12°
2026-05-04 02:15 34.81299 140.68577 19802 ft 467 kts
2026-05-04 02:15 34.84480 140.69030 19374 ft 455 kts 357°
2026-05-04 02:16 34.87608 140.69415 18957 ft 449 kts 357°
2026-05-04 02:16 34.90701 140.69808 18529 ft 443 kts 357°
2026-05-04 02:16 34.93718 140.70191 18113 ft 438 kts 356°
2026-05-04 02:16 34.96743 140.70571 17660 ft 434 kts 356°
2026-05-04 02:17 34.99727 140.70942 17228 ft 428 kts 356°
2026-05-04 02:17 35.02681 140.71309 16799 ft 425 kts 356°
2026-05-04 02:17 35.05646 140.71669 16496 ft 430 kts 356°
2026-05-04 02:17 35.08645 140.72057 16245 ft 432 kts 358°
2026-05-04 02:18 35.11598 140.72592 15862 ft 429 kts
2026-05-04 02:18 35.14539 140.73258 15368 ft 429 kts
2026-05-04 02:18 35.17471 140.73992 14872 ft 428 kts
2026-05-04 02:18 35.20345 140.74728 14375 ft 426 kts
2026-05-04 02:19 35.23243 140.75456 13871 ft 424 kts
2026-05-04 02:19 35.26143 140.76155 13385 ft 422 kts
2026-05-04 02:19 35.28993 140.76820 13250 ft 409 kts
2026-05-04 02:19 35.31747 140.77449 12787 ft 405 kts
2026-05-04 02:20 35.34518 140.78067 12282 ft 403 kts
2026-05-04 02:20 35.37269 140.78678 11778 ft 400 kts
2026-05-04 02:20 35.39984 140.79294 11275 ft 391 kts
2026-05-04 02:20 35.42604 140.79901 10813 ft 379 kts
2026-05-04 02:21 35.45124 140.80492 10667 ft 355 kts
2026-05-04 02:21 35.47516 140.81054 10327 ft 343 kts
2026-05-04 02:21 35.49791 140.81578 10095 ft 330 kts
2026-05-04 02:21 35.51998 140.82087 10062 ft 315 kts 360°
2026-05-04 02:22 35.54110 140.82574 10083 ft 301 kts 359°
2026-05-04 02:22 35.56145 140.83037 10073 ft 294 kts 358°
2026-05-04 02:22 35.58153 140.83484 10068 ft 293 kts 358°
2026-05-04 02:22 35.60162 140.83929 10066 ft 292 kts 358°
2026-05-04 02:23 35.62172 140.84380 10067 ft 292 kts 359°
2026-05-04 02:23 35.64151 140.84828 10063 ft 292 kts 359°
2026-05-04 02:23 35.66156 140.85290 10064 ft 294 kts
2026-05-04 02:23 35.68148 140.86061 10063 ft 305 kts 14°
2026-05-04 02:24 35.70048 140.87218 10063 ft 308 kts 18°
2026-05-04 02:24 35.71971 140.88416 10059 ft 308 kts 18°
2026-05-04 02:24 35.73886 140.89606 10059 ft 308 kts 18°
2026-05-04 02:24 35.75804 140.90763 10061 ft 304 kts 13°
2026-05-04 02:25 35.77792 140.91521 10061 ft 293 kts 360°
2026-05-04 02:25 35.79759 140.91793 10061 ft 284 kts 350°
2026-05-04 02:25 35.81743 140.91917 10057 ft 284 kts 350°
2026-05-04 02:25 35.83721 140.92043 10057 ft 284 kts 350°
2026-05-04 02:26 35.85700 140.92170 10055 ft 284 kts 350°
2026-05-04 02:26 35.87647 140.92136 10044 ft 273 kts 339°
2026-05-04 02:26 35.89438 140.91668 10047 ft 260 kts 328°
2026-05-04 02:26 35.91119 140.90907 10053 ft 257 kts 325°
2026-05-04 02:27 35.92792 140.90133 10047 ft 257 kts 325°
2026-05-04 02:27 35.94466 140.89352 10048 ft 255 kts 322°
2026-05-04 02:27 35.95827 140.88181 10040 ft 225 kts 296°
2026-05-04 02:27 35.96508 140.86560 10039 ft 205 kts 274°
2026-05-04 02:28 35.96564 140.84879 9822 ft 194 kts 255°
2026-05-04 02:28 35.96062 140.83358 9591 ft 191 kts 238°
2026-05-04 02:28 35.95338 140.81984 9365 ft 191 kts 238°
2026-05-04 02:28 35.94621 140.80602 9138 ft 190 kts 238°
2026-05-04 02:29 35.93908 140.79222 8923 ft 190 kts 239°
2026-05-04 02:29 35.93209 140.77867 8718 ft 189 kts 238°
2026-05-04 02:29 35.92503 140.76497 8519 ft 189 kts 238°
2026-05-04 02:29 35.91797 140.75127 8295 ft 188 kts 238°
2026-05-04 02:30 35.91093 140.73760 8091 ft 188 kts 238°
2026-05-04 02:30 35.90395 140.72405 7884 ft 189 kts 238°
2026-05-04 02:30 35.89689 140.71037 7675 ft 188 kts 238°
2026-05-04 02:30 35.88984 140.69673 7469 ft 188 kts 238°
2026-05-04 02:31 35.88280 140.68310 7255 ft 188 kts 238°
2026-05-04 02:31 35.87576 140.66948 7056 ft 188 kts 238°
2026-05-04 02:31 35.86884 140.65610 6849 ft 188 kts 238°
2026-05-04 02:31 35.86179 140.64251 6640 ft 187 kts 238°
2026-05-04 02:32 35.85479 140.62900 6436 ft 188 kts 239°
2026-05-04 02:32 35.84786 140.61548 6231 ft 188 kts 241°
2026-05-04 02:32 35.84453 140.60006 6063 ft 190 kts 268°
2026-05-04 02:32 35.84884 140.58418 6001 ft 206 kts 296°
2026-05-04 02:33 35.85795 140.57021 5979 ft 211 kts 300°
2026-05-04 02:33 35.86728 140.55615 5750 ft 210 kts 300°
2026-05-04 02:33 35.87645 140.54230 5616 ft 210 kts 300°
2026-05-04 02:33 35.88576 140.52825 5502 ft 210 kts 300°
2026-05-04 02:34 35.89490 140.51440 5400 ft 211 kts 300°
2026-05-04 02:34 35.90416 140.50038 5295 ft 210 kts 300°
2026-05-04 02:34 35.91344 140.48630 5196 ft 211 kts 300°
2026-05-04 02:34 35.92275 140.47208 5087 ft 212 kts 300°
2026-05-04 02:35 35.93199 140.45795 4985 ft 211 kts 300°
2026-05-04 02:35 35.94115 140.44395 4878 ft 212 kts 300°
2026-05-04 02:35 35.95047 140.42973 4782 ft 212 kts 300°
2026-05-04 02:35 35.95977 140.41554 4681 ft 212 kts 300°
2026-05-04 02:36 35.96873 140.40141 4558 ft 211 kts 299°
2026-05-04 02:36 35.97751 140.38691 4487 ft 210 kts 298°
2026-05-04 02:36 35.98621 140.37240 4375 ft 210 kts 298°
2026-05-04 02:36 35.99492 140.35782 4271 ft 212 kts 298°
2026-05-04 02:37 36.00344 140.34285 4162 ft 208 kts 289°
2026-05-04 02:37 36.00715 140.32648 4074 ft 196 kts 266°
2026-05-04 02:37 36.00498 140.31015 3975 ft 191 kts 246°
2026-05-04 02:37 35.99854 140.29601 3865 ft 192 kts 238°
2026-05-04 02:38 35.99163 140.28185 3765 ft 193 kts 238°
2026-05-04 02:38 35.98471 140.26760 3681 ft 189 kts 236°
2026-05-04 02:38 35.97631 140.25607 3563 ft 172 kts 220°
2026-05-04 02:38 35.96629 140.24915 3460 ft 160 kts 204°
2026-05-04 02:39 35.95567 140.24635 3371 ft 158 kts 189°
2026-05-04 02:39 35.94474 140.24737 3264 ft 159 kts 175°
2026-05-04 02:39 35.93427 140.25236 3173 ft 166 kts 159°
2026-05-04 02:39 35.92422 140.25965 3100 ft 168 kts 158°
2026-05-04 02:40 35.91420 140.26694 3050 ft 166 kts 158°
2026-05-04 02:40 35.90436 140.27409 2928 ft 165 kts 160°
2026-05-04 02:40 35.89454 140.28123 2780 ft 161 kts 159°
2026-05-04 02:40 35.88483 140.28827 2560 ft 161 kts 159°
2026-05-04 02:41 35.87531 140.29517 2344 ft 160 kts 160°
2026-05-04 02:41 35.86573 140.30213 2144 ft 157 kts 160°
2026-05-04 02:41 35.85630 140.30896 1934 ft 157 kts 160°
2026-05-04 02:41 35.84689 140.31578 1729 ft 155 kts 160°
2026-05-04 02:42 35.83760 140.32251 1524 ft 155 kts 159°
2026-05-04 02:42 35.82828 140.32926 1339 ft 155 kts 159°
2026-05-04 02:42 35.81905 140.33594 1120 ft 155 kts 159°
2026-05-04 02:42 35.80986 140.34260 937 ft 148 kts 161°
2026-05-04 02:43 35.80111 140.34899 765 ft 145 kts 161°
2026-05-04 02:43 35.79225 140.35527 581 ft 147 kts 160°
2026-05-04 02:43 35.78338 140.36170 408 ft 147 kts 159°
2026-05-04 02:43 35.77476 140.36803 208 ft 146 kts 157°
2026-05-04 02:44 35.76618 140.37414 149 ft 130 kts 156°
2026-05-04 02:44 35.76029 140.37830 144 ft 55 kts 149°
2026-05-04 02:44 35.75777 140.38012 146 ft 39 kts 147°
2026-05-04 02:44 35.75578 140.38200 146 ft 35 kts 132°
2026-05-04 02:45 35.75479 140.38384 145 ft 14 kts 121°
2026-05-04 02:45 35.75468 140.38493 144 ft 13 kts 62°
2026-05-04 02:45 35.75521 140.38580 144 ft 11 kts 28°
2026-05-04 02:45 35.75584 140.38558 144 ft 5 kts 349°
2026-05-04 02:46 35.75598 140.38587 144 ft 7 kts 83°
2026-05-04 02:46 35.75596 140.38667 144 ft 9 kts 91°
2026-05-04 02:46 35.75616 140.38737 144 ft 8 kts 60°
2026-05-04 02:46 35.75644 140.38797 144 ft 8 kts 60°
2026-05-04 02:47 35.75672 140.38856 144 ft 8 kts 60°
2026-05-04 02:47 35.75699 140.38882 144 ft 3 kts 338°
2026-05-04 02:47 35.75738 140.38855 144 ft 9 kts 329°
2026-05-04 02:47 35.75785 140.38820 144 ft 7 kts 330°
2026-05-04 02:48 35.75828 140.38826 144 ft 6 kts 24°
2026-05-04 02:48 35.75866 140.38847 144 ft 7 kts 24°
2026-05-04 02:48 35.75913 140.38873 144 ft 7 kts 24°
2026-05-04 02:48 35.75957 140.38898 144 ft 7 kts 24°
2026-05-04 02:49 35.76000 140.38922 144 ft 7 kts 24°
2026-05-04 02:49 35.76043 140.38944 144 ft 6 kts 11°
2026-05-04 02:49 35.76059 140.38922 144 ft 3 kts 293°
2026-05-04 02:49 35.76065 140.38896 144 ft 4 kts 285°
2026-05-04 02:50 35.76077 140.38850 144 ft 6 kts 294°
2026-05-04 02:50 35.76092 140.38809 144 ft 5 kts 295°
2026-05-04 02:50 35.76101 140.38784 144 ft 5 kts 295°
2026-05-04 02:50 35.76114 140.38751 144 ft 4 kts 295°
2026-05-04 02:51 35.76138 140.38706 144 ft 7 kts 323°
2026-05-04 02:51 35.76170 140.38684 144 ft 8 kts 330°
2026-05-04 02:51 35.76207 140.38665 144 ft 4 kts 358°
2026-05-04 02:51 35.76229 140.38689 144 ft 5 kts 55°
2026-05-04 02:52 35.76244 140.38717 144 ft 3 kts 58°
2026-05-04 02:52 35.76249 140.38728 144 ft 1 kts 59°
2026-05-04 02:52 35.76255 140.38742 144 ft 1 kts 59°
2026-05-04 02:52 35.76256 140.38742 144 ft 0 kts 59°